Kuiper-00074

operational
NORAD ID: 64821 Int'l Des: 2025-151 Owner: KUIP Country: US Constellation: kuiper
LEOCIRCULAR

关于 Kuiper-00074

正在加载描述...

实时位置

正在加载3D地球...

即将过境

高度历史

Altitude vs Time

uPlot chart will show altitude changes over time

两行轨道根数

1 64821U 25151F 25340.37698460 .00009706 00000-0 12978-2 0 9993
2 64821 51.9028 343.2164 0013481 325.2548 34.7533 14.79964425 21624
Epoch: Dec 6, 2025 • Age: 22 hours

当前状态

高度 638.8 km
速度 7.54 km/s
星下点 -10.67°S, 13.5°W
发射日期 Jul 16, 2025
运行时间 0.3 years
类型 internet

技术详情

分类 Payload
质量 490.00 kg
干质量 490.00 kg
总质量 490.00 kg
长度 1.80 m
直径 0.70 m
跨度 5.00 m
形状 Box + 2 pan
制造商 KUIP
平台类型 Kuiper
阶段状态 In Orbit
所有者/国家 KUIP/US

大型星座

Loading constellations...